Voltar ao catálogo

THORAD AGENA D DEB

AtivoPO
NORAD 42523·DEBRIS·🇺🇸 United States

Lançado Apr 8, 1970 de Vandenberg Space Force Base

Loading…

Próximas Passagens (próximas 24 horas)

TLE

EnvelhecendoSource: Space-Track

Época: Sep 7, 2026, 20:10 UTC

1 42523U 70025SD  26250.84092531  .00000323  00000-0  37801-3 0  9997
2 42523  99.9861  14.6517 0026171  51.3557 100.4416 13.76562504641711

Acompanhe THORAD AGENA D DEB em tempo real com AllMySat

Download on the App Store